Location: *
(45.1961°N, 1.9694°E)
Time: 11:19:04
(UTC+00:00)

Cosmos 1680 Rocket - Pass Details

Date: 25 August 2019
Orbit: 760 x 780 km, 74.1° (Epoch: 22 September)

Event Time Altitude Azimuth Distance (km) Brightness Sun altitude
Rises 19:36:50 0° 338° (NNW) 3,246 7.6 -9.7°
Reaches altitude 10° 19:39:13 10° 339° (NNW) 2,313 6.7 -10.1°
Maximum altitude 19:44:29 89° 258° (WSW) 770 3.5 -10.9°
Drops below altitude 10° 19:49:41 10° 161° (SSE) 2,287 5.5 -11.7°
Enters shadow 19:50:21 - 161° (SSE) 2,548 5.8 -11.8°
